• In Netherlands
  • List of Countries
  • For 7 days
  • Water Temperature
  • Satellite Maps
  • Weather Map
  • Weather Widgets
  • user-avatar
    Login

    Hourly Weather Ali Bayramli

    Today, 24 May, Wednesday

    Time Temperature Precipitation Wind Pressure Humidity
    00:00 +20°C° 0 mm 3 mps 756 mmHg 69%
    01:00 +19°C° 0 mm 3 mps 756 mmHg 71%
    02:00 +19°C° 0 mm 2 mps 756 mmHg 74%
    03:00 +18°C° 0 mm 2 mps 756 mmHg 73%
    04:00 +19°C° 0 mm 2 mps 756 mmHg 71%
    05:00 +19°C° 0 mm 2 mps 757 mmHg 69%
    06:00 +20°C° 0 mm 2 mps 757 mmHg 68%
    07:00 +21°C° 0 mm 3 mps 757 mmHg 63%
    08:00 +22°C° 0 mm 3 mps 757 mmHg 58%
    09:00 +25°C° 0 mm 3 mps 757 mmHg 52%
    10:00 +26°C° 0 mm 3 mps 757 mmHg 49%
    11:00 +27°C° 0 mm 3 mps 757 mmHg 45%
    12:00 +28°C° 0 mm 3 mps 756 mmHg 42%
    13:00 +28°C° 0 mm 4 mps 756 mmHg 42%
    14:00 +28°C° 0 mm 4 mps 756 mmHg 41%
    15:00 +28°C° 0 mm 4 mps 756 mmHg 41%
    16:00 +27°C° 0 mm 5 mps 756 mmHg 44%
    17:00 +26°C° 0 mm 5 mps 756 mmHg 47%
    18:00 +24°C° 0 mm 6 mps 756 mmHg 50%
    19:00 +23°C° 0 mm 5 mps 757 mmHg 54%
    20:00 +22°C° 0 mm 5 mps 757 mmHg 57%
    21:00 +21°C° 0 mm 4 mps 758 mmHg 61%
    22:00 +20°C° 0 mm 4 mps 758 mmHg 63%
    23:00 +20°C° 0 mm 4 mps 758 mmHg 65%

    Tomorrow, 25 May, Thursday

    Time Temperature Precipitation Wind Pressure Humidity
    00:00 +19°C° 0 mm 4 mps 758 mmHg 66%
    01:00 +19°C° 0 mm 3 mps 759 mmHg 68%
    02:00 +18°C° 0 mm 3 mps 759 mmHg 70%
    03:00 +18°C° 0 mm 2 mps 759 mmHg 72%
    04:00 +19°C° 0 mm 2 mps 759 mmHg 70%
    05:00 +19°C° 0 mm 2 mps 759 mmHg 68%
    06:00 +20°C° 0 mm 2 mps 759 mmHg 66%
    07:00 +21°C° 0 mm 2 mps 760 mmHg 60%
    08:00 +24°C° 0 mm 2 mps 760 mmHg 53%
    09:00 +25°C° 0 mm 2 mps 760 mmHg 47%
    10:00 +26°C° 0 mm 2 mps 760 mmHg 43%
    11:00 +27°C° 0 mm 2 mps 759 mmHg 39%
    12:00 +28°C° 0 mm 2 mps 759 mmHg 35%
    13:00 +29°C° 0 mm 3 mps 759 mmHg 36%
    14:00 +29°C° 0 mm 4 mps 759 mmHg 36%
    15:00 +29°C° 0 mm 4 mps 758 mmHg 36%
    16:00 +27°C° 0 mm 5 mps 759 mmHg 43%
    17:00 +26°C° 0 mm 6 mps 759 mmHg 49%
    18:00 +23°C° 0 mm 6 mps 759 mmHg 55%
    19:00 +22°C° 0 mm 5 mps 759 mmHg 58%
    20:00 +21°C° 0 mm 5 mps 760 mmHg 60%
    21:00 +20°C° 0 mm 4 mps 760 mmHg 63%
    22:00 +20°C° 0 mm 3 mps 760 mmHg 64%
    23:00 +19°C° 0 mm 3 mps 760 mmHg 65%

    Day after tomorrow, 26 May, Friday

    Time Temperature Precipitation Wind Pressure Humidity
    00:00 +19°C° 0 mm 2 mps 760 mmHg 66%
    01:00 +19°C° 0 mm 2 mps 760 mmHg 68%
    02:00 +19°C° 0 mm 1 mps 760 mmHg 69%
    03:00 +19°C° 0 mm 1 mps 760 mmHg 71%
    04:00 +19°C° 0 mm 1 mps 760 mmHg 68%
    05:00 +20°C° 0 mm 1 mps 760 mmHg 66%
    06:00 +21°C° 0 mm 1 mps 760 mmHg 63%
    07:00 +22°C° 0 mm 1 mps 760 mmHg 59%
    08:00 +23°C° 0 mm 2 mps 760 mmHg 55%
    09:00 +24°C° 0 mm 2 mps 760 mmHg 51%
    10:00 +26°C° 0 mm 3 mps 760 mmHg 48%
    11:00 +27°C° 0 mm 3 mps 760 mmHg 45%
    12:00 +28°C° 0 mm 4 mps 759 mmHg 43%
    13:00 +28°C° 0 mm 4 mps 759 mmHg 42%
    14:00 +28°C° 0 mm 5 mps 758 mmHg 42%
    15:00 +28°C° 0 mm 5 mps 758 mmHg 42%
    16:00 +27°C° 0 mm 5 mps 758 mmHg 45%
    17:00 +26°C° 0 mm 5 mps 758 mmHg 49%
    18:00 +25°C° 0 mm 5 mps 758 mmHg 52%
    19:00 +23°C° 0 mm 4 mps 758 mmHg 57%
    20:00 +21°C° 0 mm 4 mps 758 mmHg 62%
    21:00 +20°C° 0 mm 3 mps 759 mmHg 67%
    22:00 +20°C° 0 mm 2 mps 758 mmHg 69%
    23:00 +20°C° 0 mm 2 mps 758 mmHg 71%

    27 May, Saturday

    Time Temperature Precipitation Wind Pressure Humidity
    00:00 +20°C° 0 mm 1 mps 758 mmHg 72%
    01:00 +20°C° 0.1 mm 1 mps 758 mmHg 74%
    02:00 +19°C° 0.1 mm 1 mps 758 mmHg 76%
    03:00 +19°C° 0.1 mm 1 mps 757 mmHg 78%
    04:00 +20°C° 0 mm 1 mps 757 mmHg 75%
    05:00 +20°C° 0 mm 1 mps 757 mmHg 71%
    06:00 +21°C° 0 mm 1 mps 757 mmHg 68%
    07:00 +22°C° 0 mm 1 mps 757 mmHg 62%
    08:00 +24°C° 0 mm 1 mps 757 mmHg 56%
    09:00 +25°C° 0 mm 2 mps 757 mmHg 50%
    10:00 +26°C° 0 mm 2 mps 756 mmHg 47%
    11:00 +27°C° 0 mm 3 mps 756 mmHg 43%
    12:00 +29°C° 0 mm 3 mps 755 mmHg 40%
    13:00 +29°C° 0 mm 4 mps 754 mmHg 39%
    14:00 +29°C° 0 mm 4 mps 754 mmHg 38%
    15:00 +30°C° 0 mm 5 mps 753 mmHg 37%
    16:00 +28°C° 0.6 mm 4 mps 753 mmHg 42%
    17:00 +26°C° 0.6 mm 4 mps 752 mmHg 48%
    18:00 +25°C° 0.6 mm 4 mps 752 mmHg 53%
    19:00 +24°C° 0.2 mm 3 mps 752 mmHg 58%
    20:00 +23°C° 0.2 mm 2 mps 753 mmHg 63%
    21:00 +22°C° 0.2 mm 1 mps 753 mmHg 68%
    22:00 +22°C° 0.1 mm 1 mps 753 mmHg 69%
    23:00 +20°C° 0.1 mm 2 mps 752 mmHg 71%

    28 May, Sunday

    Time Temperature Precipitation Wind Pressure Humidity
    00:00 +20°C° 0.1 mm 3 mps 752 mmHg 73%
    01:00 +19°C° 0 mm 3 mps 752 mmHg 75%
    02:00 +19°C° 0 mm 3 mps 752 mmHg 77%
    03:00 +19°C° 0 mm 3 mps 752 mmHg 79%
    04:00 +19°C° 0 mm 3 mps 753 mmHg 75%
    05:00 +20°C° 0 mm 4 mps 753 mmHg 70%
    06:00 +20°C° 0 mm 4 mps 754 mmHg 66%
    07:00 +22°C° 0 mm 4 mps 754 mmHg 58%
    08:00 +25°C° 0 mm 4 mps 754 mmHg 49%
    09:00 +27°C° 0 mm 4 mps 755 mmHg 40%
    10:00 +29°C° 0 mm 4 mps 754 mmHg 36%
    11:00 +30°C° 0 mm 5 mps 754 mmHg 32%
    12:00 +33°C° 0 mm 5 mps 754 mmHg 28%
    13:00 +33°C° 0 mm 5 mps 754 mmHg 29%
    14:00 +33°C° 0 mm 5 mps 754 mmHg 30%
    15:00 +33°C° 0 mm 5 mps 753 mmHg 30%
    16:00 +30°C° 0 mm 5 mps 753 mmHg 37%
    17:00 +28°C° 0 mm 6 mps 753 mmHg 43%
    18:00 +26°C° 0 mm 7 mps 753 mmHg 50%
    19:00 +24°C° 0 mm 6 mps 754 mmHg 54%
    20:00 +22°C° 0 mm 5 mps 754 mmHg 58%
    21:00 +21°C° 0 mm 4 mps 754 mmHg 63%
    22:00 +21°C° 0 mm 3 mps 754 mmHg 64%
    23:00 +20°C° 0 mm 2 mps 754 mmHg 66%

    29 May, Monday

    Time Temperature Precipitation Wind Pressure Humidity
    00:00 +20°C° 0 mm 2 mps 754 mmHg 68%
    01:00 +20°C° 0 mm 2 mps 754 mmHg 66%
    02:00 +20°C° 0 mm 2 mps 754 mmHg 65%
    03:00 +20°C° 0 mm 3 mps 754 mmHg 63%
    04:00 +20°C° 0 mm 3 mps 755 mmHg 62%
    05:00 +20°C° 0 mm 4 mps 756 mmHg 61%
    06:00 +21°C° 0 mm 4 mps 756 mmHg 60%
    07:00 +22°C° 0 mm 4 mps 757 mmHg 55%
    08:00 +25°C° 0 mm 4 mps 757 mmHg 49%
    09:00 +26°C° 0 mm 5 mps 758 mmHg 43%
    10:00 +27°C° 0 mm 6 mps 758 mmHg 43%
    11:00 +27°C° 0 mm 8 mps 758 mmHg 42%
    12:00 +28°C° 0 mm 9 mps 759 mmHg 41%
    13:00 +27°C° 0 mm 11 mps 759 mmHg 41%
    14:00 +24°C° 0 mm 12 mps 759 mmHg 42%
    15:00 +23°C° 0 mm 13 mps 760 mmHg 42%
    16:00 +22°C° 0 mm 13 mps 760 mmHg 44%
    17:00 +19°C° 0 mm 12 mps 761 mmHg 46%
    18:00 +17°C° 0 mm 12 mps 762 mmHg 47%
    19:00 +17°C° 0 mm 11 mps 763 mmHg 49%
    20:00 +16°C° 0 mm 11 mps 764 mmHg 50%
    21:00 +16°C° 0 mm 10 mps 765 mmHg 52%
    22:00 +16°C° 0 mm 9 mps 765 mmHg 53%
    23:00 +15°C° 0 mm 8 mps 765 mmHg 54%
    Show more